Time,TemperatureF,DewpointF,PressureIn,WindDirection,WindDirectionDegrees,WindSpeedMPH,WindSpeedGustMPH,Humidity,HourlyPrecipIn,Conditions,Clouds,dailyrainin,SoftwareType,DateUTC
2013-04-15 00:02:00,39.0,39.0,-100.00,East,90,0.0,2.0,97,-99.99,,,-99.99,,2013-04-15 07:02:00,
2013-04-15 00:41:00,40.0,39.0,-100.00,SE,135,1.0,2.0,97,-99.99,,,-99.99,,2013-04-15 07:41:00,
2013-04-15 00:42:00,40.0,39.0,-100.00,SE,135,1.0,2.0,97,-99.99,,,-99.99,,2013-04-15 07:42:00,
2013-04-15 00:53:00,40.0,39.0,-100.00,South,180,0.0,3.0,97,-99.99,,,-99.99,,2013-04-15 07:53:00,
2013-04-15 01:02:00,40.0,39.0,-100.00,SW,225,1.0,1.0,97,-99.99,,,-99.99,,2013-04-15 08:02:00,
2013-04-15 01:12:00,40.0,39.0,-100.00,SW,225,1.0,1.0,97,-99.99,,,-99.99,,2013-04-15 08:12:00,
2013-04-15 01:22:00,40.0,39.0,-100.00,East,90,1.0,2.0,97,-99.99,,,-99.99,,2013-04-15 08:22:00,
2013-04-15 01:32:00,40.0,39.0,-100.00,South,180,0.0,1.0,97,-99.99,,,-99.99,,2013-04-15 08:32:00,
2013-04-15 01:42:00,40.0,39.0,-100.00,South,180,0.0,1.0,97,-99.99,,,-99.99,,2013-04-15 08:42:00,
2013-04-15 01:52:00,40.0,40.0,-100.00,West,270,0.0,1.0,97,-99.99,,,-99.99,,2013-04-15 08:52:00,
2013-04-15 02:02:00,40.0,39.0,-100.00,NE,45,0.0,1.0,97,-99.99,,,-99.99,,2013-04-15 09:02:00,
2013-04-15 02:12:00,40.0,39.0,-100.00,NE,45,0.0,1.0,97,-99.99,,,-99.99,,2013-04-15 09:12:00,
2013-04-15 02:22:00,40.0,40.0,-100.00,North,0,1.0,1.0,97,-99.99,,,-99.99,,2013-04-15 09:22:00,
2013-04-15 02:32:00,41.0,40.0,-100.00,East,90,0.0,3.0,97,-99.99,,,-99.99,,2013-04-15 09:32:00,
2013-04-15 02:42:00,41.0,40.0,-100.00,East,90,0.0,3.0,97,-99.99,,,-99.99,,2013-04-15 09:42:00,
2013-04-15 02:53:00,41.0,40.0,-100.00,NW,315,1.0,4.0,96,-99.99,,,-99.99,,2013-04-15 09:53:00,
2013-04-15 03:02:00,41.0,40.0,-100.00,North,0,1.0,2.0,95,-99.99,,,-99.99,,2013-04-15 10:02:00,
2013-04-15 03:12:00,41.0,40.0,-100.00,North,0,1.0,2.0,95,-99.99,,,-99.99,,2013-04-15 10:12:00,
2013-04-15 03:23:00,41.0,40.0,-100.00,SE,135,1.0,3.0,94,-99.99,,,-99.99,,2013-04-15 10:23:00,
2013-04-15 03:32:00,41.0,40.0,-100.00,North,0,1.0,3.0,94,-99.99,,,-99.99,,2013-04-15 10:32:00,
2013-04-15 03:42:00,41.0,40.0,-100.00,North,0,1.0,3.0,94,-99.99,,,-99.99,,2013-04-15 10:42:00,
2013-04-15 03:52:00,41.0,39.0,-100.00,North,0,1.0,3.0,92,-99.99,,,-99.99,,2013-04-15 10:52:00,
2013-04-15 04:12:00,40.0,38.0,-100.00,NE,45,1.0,3.0,93,-99.99,,,-99.99,,2013-04-15 11:12:00,
2013-04-15 04:22:00,40.0,38.0,-100.00,SE,135,1.0,4.0,94,-99.99,,,-99.99,,2013-04-15 11:22:00,
2013-04-15 04:32:00,40.0,38.0,-100.00,NE,45,1.0,3.0,94,-99.99,,,-99.99,,2013-04-15 11:32:00,
2013-04-15 04:42:00,40.0,38.0,-100.00,NE,45,1.0,3.0,94,-99.99,,,-99.99,,2013-04-15 11:42:00,
2013-04-15 04:53:00,40.0,38.0,-100.00,West,270,0.0,1.0,94,-99.99,,,-99.99,,2013-04-15 11:53:00,
2013-04-15 05:03:00,40.0,38.0,-100.00,North,0,0.0,1.0,94,-99.99,,,-99.99,,2013-04-15 12:03:00,
2013-04-15 05:13:00,40.0,38.0,-100.00,North,0,0.0,1.0,94,-99.99,,,-99.99,,2013-04-15 12:13:00,
2013-04-15 05:23:00,39.0,38.0,-100.00,East,90,0.0,2.0,95,-99.99,,,-99.99,,2013-04-15 12:23:00,
2013-04-15 05:33:00,39.0,38.0,-100.00,East,90,0.0,1.0,95,-99.99,,,-99.99,,2013-04-15 12:33:00,
2013-04-15 05:43:00,39.0,38.0,-100.00,East,90,0.0,1.0,95,-99.99,,,-99.99,,2013-04-15 12:43:00,
2013-04-15 05:53:00,39.0,38.0,-100.00,East,90,0.0,1.0,96,-99.99,,,-99.99,,2013-04-15 12:53:00,
2013-04-15 06:03:00,39.0,38.0,-100.00,East,90,1.0,2.0,96,-99.99,,,-99.99,,2013-04-15 13:03:00,
2013-04-15 06:12:00,39.0,38.0,-100.00,East,90,1.0,2.0,96,-99.99,,,-99.99,,2013-04-15 13:12:00,
2013-04-15 06:23:00,38.0,37.0,-100.00,SE,135,1.0,3.0,96,-99.99,,,-99.99,,2013-04-15 13:23:00,
2013-04-15 06:32:00,38.0,37.0,-100.00,SE,135,1.0,3.0,96,-99.99,,,-99.99,,2013-04-15 13:32:00,
2013-04-15 06:42:00,38.0,37.0,-100.00,SE,135,1.0,3.0,96,-99.99,,,-99.99,,2013-04-15 13:42:00,
2013-04-15 06:53:00,38.0,37.0,-100.00,East,90,2.0,4.0,96,-99.99,,,-99.99,,2013-04-15 13:53:00,
2013-04-15 07:03:00,38.0,37.0,-100.00,SE,135,1.0,3.0,96,-99.99,,,-99.99,,2013-04-15 14:03:00,
2013-04-15 07:12:00,38.0,37.0,-100.00,SE,135,1.0,3.0,96,-99.99,,,-99.99,,2013-04-15 14:12:00,
2013-04-15 07:22:00,38.0,37.0,-100.00,East,90,2.0,3.0,96,-99.99,,,-99.99,,2013-04-15 14:22:00,
2013-04-15 07:32:00,38.0,37.0,-100.00,East,90,1.0,3.0,96,-99.99,,,-99.99,,2013-04-15 14:32:00,
2013-04-15 07:43:00,38.0,37.0,-100.00,East,90,1.0,3.0,96,-99.99,,,-99.99,,2013-04-15 14:43:00,
2013-04-15 07:54:00,38.0,37.0,-100.00,North,0,1.0,1.0,95,-99.99,,,-99.99,,2013-04-15 14:54:00,
2013-04-15 08:03:00,39.0,37.0,-100.00,East,90,0.0,1.0,95,-99.99,,,-99.99,,2013-04-15 15:03:00,
2013-04-15 08:12:00,39.0,37.0,-100.00,East,90,0.0,1.0,95,-99.99,,,-99.99,,2013-04-15 15:12:00,
2013-04-15 08:23:00,39.0,37.0,-100.00,East,90,1.0,3.0,94,-99.99,,,-99.99,,2013-04-15 15:23:00,
2013-04-15 08:34:00,39.0,37.0,-100.00,NE,45,1.0,3.0,92,-99.99,,,-99.99,,2013-04-15 15:34:00,
2013-04-15 08:43:00,39.0,37.0,-100.00,NE,45,1.0,3.0,92,-99.99,,,-99.99,,2013-04-15 15:43:00,
2013-04-15 08:54:00,39.0,37.0,-100.00,North,0,0.0,4.0,90,-99.99,,,-99.99,,2013-04-15 15:54:00,
2013-04-15 09:03:00,40.0,37.0,-100.00,South,180,0.0,3.0,91,-99.99,,,-99.99,,2013-04-15 16:03:00,
2013-04-15 09:13:00,40.0,37.0,-100.00,South,180,0.0,3.0,91,-99.99,,,-99.99,,2013-04-15 16:13:00,
2013-04-15 09:23:00,41.0,39.0,-100.00,SW,225,1.0,3.0,90,-99.99,,,-99.99,,2013-04-15 16:23:00,
2013-04-15 09:32:00,44.0,39.0,-100.00,SW,225,3.0,9.0,82,-99.99,,,-99.99,,2013-04-15 16:32:00,
2013-04-15 09:43:00,44.0,39.0,-100.00,SW,225,3.0,9.0,82,-99.99,,,-99.99,,2013-04-15 16:43:00,
2013-04-15 09:53:00,44.0,37.0,-100.00,South,180,4.0,8.0,77,-99.99,,,-99.99,,2013-04-15 16:53:00,
2013-04-15 10:03:00,45.0,37.0,-100.00,South,180,4.0,9.0,74,-99.99,,,-99.99,,2013-04-15 17:03:00,
2013-04-15 10:14:00,45.0,37.0,-100.00,South,180,4.0,9.0,74,-99.99,,,-99.99,,2013-04-15 17:14:00,
2013-04-15 10:21:00,44.0,36.0,-100.00,SW,225,3.0,9.0,73,-99.99,,,-99.99,,2013-04-15 17:21:00,
2013-04-15 10:32:00,45.0,35.0,-100.00,West,270,6.0,10.0,68,-99.99,,,-99.99,,2013-04-15 17:32:00,
2013-04-15 10:43:00,45.0,35.0,-100.00,West,270,6.0,10.0,68,-99.99,,,-99.99,,2013-04-15 17:43:00,
2013-04-15 10:52:00,46.0,36.0,-100.00,South,180,4.0,12.0,69,-99.99,,,-99.99,,2013-04-15 17:52:00,
2013-04-15 11:12:00,46.0,36.0,-100.00,West,270,7.0,12.0,69,-99.99,,,-99.99,,2013-04-15 18:12:00,
2013-04-15 11:23:00,46.0,35.0,-100.00,SW,225,6.0,15.0,67,-99.99,,,-99.99,,2013-04-15 18:23:00,
2013-04-15 11:32:00,47.0,37.0,-100.00,SW,225,4.0,11.0,67,-99.99,,,-99.99,,2013-04-15 18:32:00,
2013-04-15 11:42:00,47.0,37.0,-100.00,SW,225,4.0,11.0,67,-99.99,,,-99.99,,2013-04-15 18:42:00,
2013-04-15 11:52:00,47.0,36.0,-100.00,SW,225,6.0,11.0,65,-99.99,,,-99.99,,2013-04-15 18:52:00,
2013-04-15 12:02:00,47.0,36.0,-100.00,SW,225,7.0,15.0,65,-99.99,,,-99.99,,2013-04-15 19:02:00,
2013-04-15 12:12:00,47.0,36.0,-100.00,SW,225,7.0,15.0,65,-99.99,,,-99.99,,2013-04-15 19:12:00,
2013-04-15 12:22:00,48.0,35.0,-100.00,West,270,7.0,14.0,62,-99.99,,,-99.99,,2013-04-15 19:22:00,
2013-04-15 12:34:00,48.0,35.0,-100.00,SW,225,7.0,16.0,60,-99.99,,,-99.99,,2013-04-15 19:34:00,
2013-04-15 12:47:00,48.0,35.0,-100.00,SW,225,7.0,16.0,60,-99.99,,,-99.99,,2013-04-15 19:47:00,
2013-04-15 13:00:00,48.0,37.0,-100.00,NW,315,1.0,10.0,65,-99.99,,,-99.99,,2013-04-15 20:00:00,
2013-04-15 13:11:00,48.0,35.0,-100.00,SW,225,7.0,11.0,62,-99.99,,,-99.99,,2013-04-15 20:11:00,
2013-04-15 13:22:00,48.0,36.0,-100.00,West,270,6.0,11.0,63,-99.99,,,-99.99,,2013-04-15 20:22:00,
2013-04-15 13:32:00,47.0,36.0,-100.00,South,180,6.0,10.0,64,-99.99,,,-99.99,,2013-04-15 20:32:00,
2013-04-15 13:42:00,47.0,36.0,-100.00,South,180,6.0,10.0,64,-99.99,,,-99.99,,2013-04-15 20:42:00,
2013-04-15 13:52:00,47.0,36.0,-100.00,SW,225,6.0,12.0,65,-99.99,,,-99.99,,2013-04-15 20:52:00,
2013-04-15 14:02:00,47.0,38.0,-100.00,NW,315,4.0,7.0,71,-99.99,,,-99.99,,2013-04-15 21:02:00,
2013-04-15 14:12:00,47.0,38.0,-100.00,NW,315,4.0,7.0,71,-99.99,,,-99.99,,2013-04-15 21:12:00,
2013-04-15 14:22:00,46.0,38.0,-100.00,North,0,2.0,3.0,72,-99.99,,,-99.99,,2013-04-15 21:22:00,
2013-04-15 14:32:00,47.0,38.0,-100.00,NW,315,4.0,6.0,71,-99.99,,,-99.99,,2013-04-15 21:32:00,
2013-04-15 14:42:00,47.0,38.0,-100.00,NW,315,4.0,6.0,71,-99.99,,,-99.99,,2013-04-15 21:42:00,
2013-04-15 14:53:00,47.0,37.0,-100.00,North,0,4.0,8.0,70,-99.99,,,-99.99,,2013-04-15 21:53:00,
2013-04-15 15:02:00,47.0,37.0,-100.00,NW,315,3.0,6.0,66,-99.99,,,-99.99,,2013-04-15 22:02:00,
2013-04-15 15:13:00,47.0,37.0,-100.00,NW,315,3.0,6.0,66,-99.99,,,-99.99,,2013-04-15 22:13:00,
2013-04-15 15:23:00,47.0,36.0,-100.00,NW,315,4.0,8.0,64,-99.99,,,-99.99,,2013-04-15 22:23:00,
2013-04-15 15:32:00,50.0,37.0,-100.00,NW,315,3.0,5.0,60,-99.99,,,-99.99,,2013-04-15 22:32:00,
2013-04-15 15:42:00,50.0,37.0,-100.00,NW,315,3.0,5.0,60,-99.99,,,-99.99,,2013-04-15 22:42:00,
2013-04-15 15:52:00,50.0,35.0,-100.00,North,0,3.0,6.0,55,-99.99,,,-99.99,,2013-04-15 22:52:00,
2013-04-15 16:02:00,51.0,36.0,-100.00,North,0,7.0,9.0,55,-99.99,,,-99.99,,2013-04-15 23:02:00,
2013-04-15 16:12:00,51.0,36.0,-100.00,North,0,7.0,9.0,55,-99.99,,,-99.99,,2013-04-15 23:12:00,
2013-04-15 16:22:00,51.0,36.0,-100.00,NW,315,3.0,9.0,55,-99.99,,,-99.99,,2013-04-15 23:22:00,
2013-04-15 16:32:00,52.0,36.0,-100.00,SW,225,2.0,6.0,55,-99.99,,,-99.99,,2013-04-15 23:32:00,
2013-04-15 16:42:00,52.0,36.0,-100.00,SW,225,2.0,6.0,55,-99.99,,,-99.99,,2013-04-15 23:42:00,
2013-04-15 16:52:00,50.0,37.0,-100.00,North,0,3.0,7.0,62,-99.99,,,-99.99,,2013-04-15 23:52:00,
2013-04-15 17:02:00,47.0,40.0,-100.00,SE,135,3.0,8.0,76,-99.99,,,-99.99,,2013-04-16 00:02:00,
2013-04-15 17:12:00,47.0,40.0,-100.00,SE,135,3.0,8.0,76,-99.99,,,-99.99,,2013-04-16 00:12:00,
2013-04-15 17:22:00,45.0,41.0,-100.00,SE,135,3.0,8.0,85,-99.99,,,-99.99,,2013-04-16 00:22:00,
2013-04-15 17:32:00,45.0,41.0,-100.00,SE,135,3.0,8.0,85,-99.99,,,-99.99,,2013-04-16 00:32:00,
2013-04-15 17:42:00,45.0,41.0,-100.00,SE,135,3.0,8.0,85,-99.99,,,-99.99,,2013-04-16 00:42:00,
2013-04-15 17:52:00,46.0,41.0,-100.00,North,0,1.0,3.0,82,-99.99,,,-99.99,,2013-04-16 00:52:00,
2013-04-15 18:02:00,47.0,42.0,-100.00,North,0,3.0,4.0,81,-99.99,,,-99.99,,2013-04-16 01:02:00,
2013-04-15 18:12:00,47.0,42.0,-100.00,North,0,3.0,4.0,81,-99.99,,,-99.99,,2013-04-16 01:12:00,
2013-04-15 18:22:00,47.0,40.0,-100.00,North,0,4.0,6.0,77,-99.99,,,-99.99,,2013-04-16 01:22:00,
2013-04-15 18:32:00,48.0,40.0,-100.00,NW,315,1.0,3.0,73,-99.99,,,-99.99,,2013-04-16 01:32:00,
2013-04-15 18:42:00,48.0,40.0,-100.00,NW,315,1.0,3.0,73,-99.99,,,-99.99,,2013-04-16 01:42:00,
2013-04-15 18:52:00,49.0,40.0,-100.00,NW,315,0.0,3.0,72,-99.99,,,-99.99,,2013-04-16 01:52:00,
2013-04-15 19:02:00,50.0,39.0,-100.00,North,0,1.0,4.0,66,-99.99,,,-99.99,,2013-04-16 02:02:00,
2013-04-15 19:12:00,50.0,39.0,-100.00,North,0,1.0,4.0,66,-99.99,,,-99.99,,2013-04-16 02:12:00,
2013-04-15 19:22:00,50.0,38.0,-100.00,North,0,1.0,4.0,63,-99.99,,,-99.99,,2013-04-16 02:22:00,
2013-04-15 19:32:00,50.0,38.0,-100.00,North,0,1.0,4.0,65,-99.99,,,-99.99,,2013-04-16 02:32:00,
2013-04-15 19:42:00,50.0,38.0,-100.00,North,0,1.0,4.0,65,-99.99,,,-99.99,,2013-04-16 02:42:00,
2013-04-15 19:52:00,48.0,39.0,-100.00,SW,225,4.0,6.0,71,-99.99,,,-99.99,,2013-04-16 02:52:00,
2013-04-15 20:02:00,47.0,40.0,-100.00,SW,225,2.0,6.0,75,-99.99,,,-99.99,,2013-04-16 03:02:00,
2013-04-15 20:12:00,47.0,40.0,-100.00,SW,225,2.0,6.0,75,-99.99,,,-99.99,,2013-04-16 03:12:00,
2013-04-15 20:22:00,47.0,40.0,-100.00,South,180,3.0,4.0,78,-99.99,,,-99.99,,2013-04-16 03:22:00,
2013-04-15 20:33:00,46.0,41.0,-100.00,East,90,3.0,4.0,83,-99.99,,,-99.99,,2013-04-16 03:33:00,
2013-04-15 20:43:00,46.0,41.0,-100.00,East,90,3.0,4.0,83,-99.99,,,-99.99,,2013-04-16 03:43:00,
2013-04-15 20:52:00,45.0,41.0,-100.00,East,90,1.0,4.0,85,-99.99,,,-99.99,,2013-04-16 03:52:00,
2013-04-15 21:02:00,45.0,41.0,-100.00,East,90,1.0,2.0,86,-99.99,,,-99.99,,2013-04-16 04:02:00,
2013-04-15 21:12:00,45.0,41.0,-100.00,East,90,1.0,2.0,86,-99.99,,,-99.99,,2013-04-16 04:12:00,
2013-04-15 21:23:00,45.0,41.0,-100.00,East,90,1.0,4.0,86,-99.99,,,-99.99,,2013-04-16 04:23:00,
2013-04-15 21:32:00,45.0,41.0,-100.00,East,90,3.0,4.0,85,-99.99,,,-99.99,,2013-04-16 04:32:00,
2013-04-15 21:42:00,45.0,41.0,-100.00,East,90,3.0,4.0,85,-99.99,,,-99.99,,2013-04-16 04:42:00,
2013-04-15 21:53:00,45.0,41.0,-100.00,SE,135,1.0,3.0,85,-99.99,,,-99.99,,2013-04-16 04:53:00,
2013-04-15 22:02:00,44.0,41.0,-100.00,East,90,0.0,2.0,88,-99.99,,,-99.99,,2013-04-16 05:02:00,
2013-04-15 22:12:00,44.0,41.0,-100.00,East,90,0.0,2.0,88,-99.99,,,-99.99,,2013-04-16 05:12:00,
2013-04-15 22:22:00,44.0,41.0,-100.00,West,270,1.0,2.0,90,-99.99,,,-99.99,,2013-04-16 05:22:00,
2013-04-15 22:32:00,43.0,41.0,-100.00,NE,45,0.0,2.0,92,-99.99,,,-99.99,,2013-04-16 05:32:00,
2013-04-15 22:42:00,43.0,41.0,-100.00,NE,45,0.0,2.0,92,-99.99,,,-99.99,,2013-04-16 05:42:00,
2013-04-15 22:52:00,43.0,41.0,-100.00,SE,135,0.0,1.0,93,-99.99,,,-99.99,,2013-04-16 05:52:00,
2013-04-15 23:02:00,42.0,40.0,-100.00,East,90,2.0,4.0,93,-99.99,,,-99.99,,2013-04-16 06:02:00,
2013-04-15 23:12:00,42.0,40.0,-100.00,East,90,2.0,4.0,93,-99.99,,,-99.99,,2013-04-16 06:12:00,
2013-04-15 23:22:00,41.0,40.0,-100.00,SE,135,1.0,4.0,93,-99.99,,,-99.99,,2013-04-16 06:22:00,
2013-04-15 23:32:00,41.0,39.0,-100.00,East,90,2.0,3.0,93,-99.99,,,-99.99,,2013-04-16 06:32:00,
2013-04-15 23:42:00,41.0,39.0,-100.00,East,90,2.0,3.0,93,-99.99,,,-99.99,,2013-04-16 06:42:00,
2013-04-15 23:52:00,41.0,39.0,-100.00,SE,135,0.0,1.0,94,-99.99,,,-99.99,,2013-04-16 06:52:00,